"2009-02-11 00:00:00",619550,4.764,320.4,6.417,1.07,4.082,100.3127,0.098,1.344,62.92,0,109.6,13.59,0.85,282.4
"2009-02-11 00:00:30",619551,4.141,323.6,11.26,1.249,2.708,100.288,0.035,1.26,63.77,0,109.6,13.59,0.79,285.6
"2009-02-11 00:01:00",619552,4.326,317.1,8.2,1.431,2.33,100.2716,-0.007,1.144,63.96,0,109.6,13.6,0.74,279.1
"2009-02-11 00:01:30",619553,4.322,335.3,12.12,1.364,3.201,100.2479,-0.068,1.213,64.34,0,109.6,13.6,0.68,297.3
"2009-02-11 00:02:00",619554,4.506,320.8,11.83,1.435,3.204,100.2377,-0.094,1.034,64.22,0,109.6,13.6,0.66,282.8
"2009-02-11 00:02:30",619555,5.699,320.7,9.02,1.102,3.995,100.2343,-0.102,1.18,65.04,0,109.6,13.6,0.65,282.7
"2009-02-11 00:03:00",619556,5.592,312.6,8.97,1.174,4.211,100.2085,-0.168,1.101,65.55,0,109.6,13.6,0.58,274.6
"2009-02-11 00:03:30",619557,5.21,305.5,6.87,1.141,3.535,100.2015,-0.186,1.038,65.91,0,109.6,13.6,0.57,267.5
"2009-02-11 00:04:00",619558,5.116,312.8,6.479,1.186,3.373,100.1737,-0.257,1.01,66.51,0,109.6,13.6,0.49,274.8
"2009-02-11 00:04:30",619559,4.66,314.2,7.365,1.162,2.713,100.1692,-0.268,0.922,66.68,0,109.6,13.6,0.48,276.2
"2009-02-11 00:05:00",619560,4.418,316.8,6.223,1.339,2.452,100.1423,-0.337,0.898,66.93,0,109.6,13.6,0.41,278.8
"2009-02-11 00:05:30",619561,4.778,317.3,10.5,0.968,4.224,100.1358,-0.353,0.92,66.78,0,109.6,13.6,0.40,279.3
"2009-02-11 00:06:00",619562,4.68,312.2,6.442,1.297,3.857,100.1361,-0.353,0.914,67.02,0,109.6,13.6,0.40,274.2
"2009-02-11 00:06:30",619563,4.657,315.9,10.06,1.056,2.648,100.1358,-0.353,0.783,66.96,0,109.6,13.6,0.40,277.9
"2009-02-11 00:07:00",619564,4.814,324.7,9.54,1.358,2.578,100.1358,-0.353,0.801,66.58,0,109.6,13.6,0.40,286.7
"2009-02-11 00:07:30",619565,4.104,334.4,6.254,1.139,2.13,100.1367,-0.351,0.817,66.78,0,109.6,13.6,0.40,296.4
"2009-02-11 00:08:00",619566,5.496,331.5,8.42,0.932,4.547,100.1378,-0.348,0.867,66.66,0,109.6,13.6,0.40,293.5
"2009-02-11 00:08:30",619567,5.412,319.8,10.24,1.054,4.098,100.1406,-0.341,0.833,66.65,0,109.6,13.6,0.41,281.8
"2009-02-11 00:09:00",619568,4.269,324.9,12.38,1.282,2.722,100.1421,-0.337,0.754,67.19,0,109.6,13.6,0.41,286.9
"2009-02-11 00:09:30",619569,3.841,331.3,7.507,1.121,2.292,100.1429,-0.335,0.78,67.24,0,109.5,13.6,0.42,293.3
"2009-02-11 00:10:00",619570,5.549,327.2,7.168,0.849,3.248,100.1288,-0.371,0.726,67.94,0,109.6,13.6,0.38,289.2
"2009-02-11 00:10:30",619571,5.213,320.1,6.76,1.287,2.99,100.1101,-0.419,0.74,68.38,0,109.6,13.6,0.33,282.1
"2009-02-11 00:11:00",619572,5.58,320.9,5.214,0.975,4.173,100.0982,-0.449,0.74,68.76,0,109.6,13.6,0.30,282.9
"2009-02-11 00:11:30",619573,4.976,321.6,7.44,1.124,2.872,100.0761,-0.505,0.674,70.06,0,109.6,13.6,0.24,283.6
"2009-02-11 00:12:00",619574,5.205,332.9,10.09,1.471,3.171,100.0543,-0.561,0.679,70.11,0,109.6,13.6,0.19,294.9
"2009-02-11 00:12:30",619575,6.106,343.8,9.27,1.243,3.664,100.0753,-0.508,0.632,68.89,0,109.6,13.6,0.24,305.8
"2009-02-11 00:13:00",619576,5.062,7.997,12.78,0.918,4.71,100.0841,-0.485,0.691,68.95,0,109.6,13.6,0.27,330.0
"2009-02-11 00:13:30",619577,3.501,7.904,11.5,1.515,3.844,100.0911,-0.467,0.674,68.82,0,109.6,13.6,0.28,329.9
"2009-02-11 00:14:00",619578,3.392,341.4,10.16,1.296,1.595,100.1041,-0.434,0.617,68.93,0,109.6,13.6,0.32,303.4
"2009-02-11 00:14:30",619579,4.324,330.5,14.53,1.337,1.967,100.1041,-0.434,0.495,68.66,0,109.6,13.6,0.32,292.5
"2009-02-11 00:15:00",619580,5.946,336.9,12.41,1.631,3.318,100.1059,-0.43,0.594,68.29,0,109.6,13.6,0.32,298.9
"2009-02-11 00:15:30",619581,6.885,348.5,8.41,1.183,3.981,100.1191,-0.396,0.703,67.5,0,109.6,13.6,0.35,310.5
"2009-02-11 00:16:00",619582,7.787,350.8,7.205,0.757,5.363,100.1274,-0.375,0.779,66.97,0,109.6,13.6,0.38,312.8
"2009-02-11 00:16:30",619583,7.764,354.9,8.55,1.1,5.313,100.1279,-0.373,0.768,67.23,0,109.6,13.6,0.38,316.9
"2009-02-11 00:17:00",619584,7.773,359.6,13.55,0.976,4.956,100.1415,-0.339,0.789,66.62,0,109.6,13.6,0.41,321.6
"2009-02-11 00:17:30",619585,6.972,357.3,7.461,0.976,4.925,100.1599,-0.292,0.827,66.85,0,109.6,13.6,0.46,319.3
"2009-02-11 00:18:00",619586,9.67,356.1,5.986,0.816,4.823,100.1627,-0.285,0.837,66.38,0,109.6,13.6,0.47,318.1
"2009-02-11 00:18:30",619587,7.735,0.2,8.6,1.436,4.782,100.1647,-0.28,0.842,65.79,0,109.6,13.6,0.47,322.2
"2009-02-11 00:19:00",619588,6.563,6.865,12.47,2.587,4.328,100.1647,-0.28,0.863,66.86,0,109.6,13.6,0.47,328.9
"2009-02-11 00:19:30",619589,6.324,25.76,7.524,1.633,3.813,100.1667,-0.275,0.864,67.68,0,109.6,13.6,0.48,347.8
"2009-02-11 00:20:00",619590,7.408,25.67,6.853,1.12,0.452,100.1495,-0.319,0.732,69.89,0,109.6,13.6,0.43,347.7
"2009-02-11 00:20:30",619591,5.077,26.08,7.409,1.409,0.992,100.0736,-0.512,0.636,74.23,0,109.6,13.6,0.24,348.1
"2009-02-11 00:21:00",619592,7.359,43.7,8.61,1.484,3.102,100.0006,-0.698,0.594,75.85,0,109.6,13.6,0.05,5.7
"2009-02-11 00:21:30",619593,9.27,46.4,4.056,1.098,4.299,99.95499,-0.814,0.512,77.7,0,109.6,13.6,-0.07,8.4
"2009-02-11 00:22:00",619594,8.9,44.32,5.118,0.772,5.344,99.9165,-0.912,0.436,78.61,0,109.6,13.6,-0.16,6.3
"2009-02-11 00:22:30",619595,9.51,47.54,2.913,0.838,5.245,99.89102,-0.977,0.336,78.31,0,109.6,13.6,-0.23,9.5
"2009-02-11 00:23:00",619596,9.31,46.41,3.817,0.647,5.193,99.86469,-1.045,0.278,78.34,0,109.6,13.6,-0.30,8.4
"2009-02-11 00:23:30",619597,8.53,45.47,3.873,0.931,5.3,99.84912,-1.084,0.236,78.16,0,109.6,13.6,-0.34,7.5
"2009-02-11 00:24:00",619598,8.44,45.48,3.574,0.954,5.026,99.82903,-1.135,0.158,77.98,0,109.6,13.6,-0.39,7.5
"2009-02-11 00:24:30",619599,8.15,45.88,3.969,0.87,5.09,99.81911,-1.161,0.139,78,0,109.6,13.6,-0.41,7.9
"2009-02-11 00:25:00",619600,7.942,44.75,4.293,0.788,4.827,99.80355,-1.2,0.095,77.93,0,109.6,13.6,-0.45,6.8
"2009-02-11 00:25:30",619601,8.79,44.86,4.567,0.764,4.879,99.79619,-1.219,0.08,77.87,0,109.6,13.6,-0.47,6.9
"2009-02-11 00:26:00",619602,10.05,47.39,3.644,0.778,4.672,99.79619,-1.219,0.036,78.11,0,109.6,13.6,-0.47,9.4
"2009-02-11 00:26:30",619603,9.76,49.01,3.689,0.792,4.864,99.79619,-1.219,0.006,78.1,0,109.6,13.6,-0.47,11.0
"2009-02-11 00:27:00",619604,10.44,51.65,3.522,0.729,4.749,99.79166,-1.231,-0.009,78.18,0,109.6,13.6,-0.48,13.7
"2009-02-11 00:27:30",619605,10.72,51.31,4.001,0.648,4.913,99.77383,-1.276,-0.007,78.7,0,109.6,13.6,-0.53,13.3
"2009-02-11 00:28:00",619606,10.43,55.53,4.388,0.638,5.207,99.7625,-1.305,-0.033,78.93,0,109.6,13.6,-0.56,17.5
"2009-02-11 00:28:30",619607,10.07,54,4.145,0.662,5.533,99.76222,-1.306,-0.057,78.36,0,109.6,13.6,-0.56,16.0
"2009-02-11 00:29:00",619608,10.7,56.97,3.809,0.663,5.275,99.76222,-1.306,-0.06,78.09,0,109.6,13.6,-0.56,19.0
"2009-02-11 00:29:30",619609,10.87,56.69,4.02,0.62,5.398,99.76222,-1.306,-0.051,78,0,109.5,13.6,-0.56,18.7
"2009-02-11 00:30:00",619610,11.04,58.52,3.961,0.629,5.57,99.76222,-1.306,-0.065,77.82,0,109.5,13.6,-0.56,20.5
"2009-02-11 00:30:30",619611,10.9,59.59,3.416,0.585,5.709,99.76222,-1.306,-0.07,77.61,0,109.5,13.6,-0.56,21.6
"2009-02-11 00:31:00",619612,11.13,59.27,3.503,0.633,5.29,99.76222,-1.306,-0.052,77.57,0,109.5,13.6,-0.56,21.3
"2009-02-11 00:31:30",619613,11.32,59.32,3.072,0.82,5.181,99.76222,-1.306,-0.039,77.63,0,109.5,13.6,-0.56,21.3
"2009-02-11 00:32:00",619614,11.46,58.46,2.794,0.729,5.372,99.76222,-1.306,-0.057,77.82,0,109.5,13.6,-0.56,20.5
"2009-02-11 00:32:30",619615,11.17,57.27,3.997,0.703,5.815,99.76222,-1.306,-0.062,77.9,0,109.5,13.6,-0.56,19.3
"2009-02-11 00:33:00",619616,11.04,59.95,3.696,0.534,5.618,99.76222,-1.306,-0.053,77.79,0,109.5,13.6,-0.56,22.0
"2009-02-11 00:33:30",619617,10.94,60.95,3.96,0.719,5.794,99.76222,-1.306,-0.041,77.76,0,109.5,13.6,-0.56,23.0
"2009-02-11 00:34:00",619618,10.22,60.6,4.487,0.689,5.689,99.76222,-1.306,-0.07,77.57,0,109.5,13.6,-0.56,22.6
"2009-02-11 00:34:30",619619,9.74,62.71,3.079,0.668,5.663,99.76222,-1.306,-0.069,77.46,0,109.5,13.6,-0.56,24.7
"2009-02-11 00:35:00",619620,9.58,61.82,4.419,0.777,5.549,99.76222,-1.306,-0.071,77.24,0,109.5,13.6,-0.56,23.8
"2009-02-11 00:35:30",619621,9.65,61.67,3.339,0.778,5.369,99.76222,-1.306,-0.057,77.23,0,109.5,13.6,-0.56,23.7
"2009-02-11 00:36:00",619622,9.81,59.21,4.096,0.734,5.287,99.7625,-1.305,-0.057,77.27,0,109.5,13.6,-0.56,21.2
"2009-02-11 00:36:30",619623,9.34,59.43,3.712,0.827,5.305,99.7625,-1.305,-0.071,77.53,0,109.5,13.61,-0.56,21.4
"2009-02-11 00:37:00",619624,8.9,62.3,3.416,0.694,5.188,99.76222,-1.306,-0.07,77.29,0,109.6,13.61,-0.56,24.3
"2009-02-11 00:37:30",619625,8.67,63.42,4.116,0.682,5.184,99.76222,-1.306,-0.061,76.82,0,109.5,13.61,-0.56,25.4
"2009-02-11 00:38:00",619626,8.78,62.06,3.018,0.75,4.84,99.76222,-1.306,-0.075,76.88,0,109.5,13.61,-0.56,24.1
"2009-02-11 00:38:30",619627,9.43,60.08,3.495,0.727,4.797,99.76222,-1.306,-0.056,77.17,0,109.5,13.61,-0.56,22.1
"2009-02-11 00:39:00",619628,9.47,60.89,3.572,0.705,4.54,99.76222,-1.306,-0.073,77.76,0,109.5,13.61,-0.56,22.9
"2009-02-11 00:39:30",619629,9.47,62.59,4.193,0.802,4.697,99.75402,-1.327,-0.078,78,0,109.5,13.61,-0.58,24.6
"2009-02-11 00:40:00",619630,9.36,66.93,4.943,0.63,4.939,99.73194,-1.383,-0.103,77.99,0,109.5,13.6,-0.64,28.9
"2009-02-11 00:40:30",619631,9.36,70.74,4.412,0.656,5.148,99.72854,-1.392,-0.121,77.88,0,109.5,13.61,-0.64,32.7
"2009-02-11 00:41:00",619632,9.42,70.39,4.26,0.489,4.949,99.72967,-1.389,-0.112,77.74,0,109.5,13.61,-0.64,32.4
"2009-02-11 00:41:30",619633,9.34,68.35,4.073,0.655,4.943,99.73023,-1.387,-0.105,77.44,0,109.5,13.61,-0.64,30.3
"2009-02-11 00:42:00",619634,9.33,68.25,4.13,0.602,4.868,99.73136,-1.384,-0.135,77.09,0,109.5,13.61,-0.64,30.2
"2009-02-11 00:42:30",619635,9.15,69.87,2.825,0.783,4.724,99.73363,-1.379,-0.134,76.89,0,109.5,13.61,-0.63,31.9
"2009-02-11 00:43:00",619636,8.8,71.42,3.007,0.714,4.538,99.73418,-1.377,-0.136,76.71,0,109.5,13.61,-0.63,33.4
"2009-02-11 00:43:30",619637,8.54,70.32,3.485,0.737,4.611,99.74747,-1.343,-0.126,76.58,0,109.5,13.61,-0.60,32.3
"2009-02-11 00:44:00",619638,8.39,71.66,3.525,0.738,4.518,99.76305,-1.304,-0.108,76.35,0,109.5,13.61,-0.56,33.7
"2009-02-11 00:44:30",619639,8.48,72.65,3.726,0.62,4.624,99.77296,-1.278,-0.1,76.01,0,109.5,13.6,-0.53,34.7
"2009-02-11 00:45:00",619640,8.05,75.78,3.596,0.62,4.543,99.77409,-1.275,-0.097,75.79,0,109.6,13.6,-0.53,37.8
"2009-02-11 00:45:30",619641,8.19,74.6,3.306,0.761,4.305,99.77691,-1.268,-0.078,75.56,0,109.5,13.6,-0.52,36.6
"2009-02-11 00:46:00",619642,8.16,74.96,3.694,0.76,4.182,99.77719,-1.268,-0.078,75.25,0,109.5,13.6,-0.52,37.0
"2009-02-11 00:46:30",619643,7.855,73.31,3.637,0.641,4.227,99.78002,-1.26,-0.052,75.18,0,109.5,13.6,-0.51,35.3
"2009-02-11 00:47:00",619644,7.98,72.54,3.457,0.722,4.048,99.78936,-1.237,-0.069,74.71,0,109.5,13.6,-0.49,34.5
"2009-02-11 00:47:30",619645,7.823,69.8,3.975,0.669,4.026,99.79134,-1.231,-0.054,74.36,0,109.5,13.6,-0.48,31.8
"2009-02-11 00:48:00",619646,7.552,72.4,4.948,0.638,4.09,99.78992,-1.235,-0.059,74.34,0,109.5,13.6,-0.49,34.4
"2009-02-11 00:48:30",619647,7.185,74.26,3.173,0.753,3.739,99.78964,-1.236,-0.049,74.18,0,109.5,13.6,-0.49,36.3
"2009-02-11 00:49:00",619648,7.225,72.38,4.893,0.687,3.841,99.79219,-1.229,-0.055,73.89,0,109.5,13.6,-0.48,34.4
"2009-02-11 00:49:30",619649,6.782,67.22,5.55,1.048,2.07,99.79615,-1.219,-0.13,73.48,0,109.5,13.61,-0.47,29.2
"2009-02-11 00:50:00",619650,6.309,69.45,6.348,1.119,1.56,99.8103,-1.183,-0.187,72.77,0,109.5,13.61,-0.44,31.4
"2009-02-11 00:50:30",619651,6.411,70.8,5.596,1.079,2.636,99.81936,-1.16,-0.151,72.51,0,109.5,13.61,-0.41,32.8
"2009-02-11 00:51:00",619652,7.259,71.21,3.084,0.764,4.689,99.81992,-1.159,-0.025,72.61,0,109.5,13.62,-0.41,33.2
"2009-02-11 00:51:30",619653,7.268,70.23,4.305,0.658,4.912,99.82049,-1.157,0.011,72.26,0,109.5,13.62,-0.41,32.2
"2009-02-11 00:52:00",619654,7.656,67.72,3.684,0.697,4.982,99.82133,-1.155,0.004,72.28,0,109.5,13.62,-0.41,29.7
"2009-02-11 00:52:30",619655,8.2,61.33,5.237,0.448,4.41,99.82133,-1.155,0.048,72.85,0,109.5,13.62,-0.41,23.3
"2009-02-11 00:53:00",619656,8.41,58.7,3.793,0.634,3.992,99.82162,-1.154,0.024,74.88,0,109.5,13.62,-0.41,20.7
"2009-02-11 00:53:30",619657,8.62,56.92,3.477,0.665,4.041,99.81795,-1.164,0.026,75.94,0,109.5,13.62,-0.42,18.9
"2009-02-11 00:54:00",619658,8.36,56.5,1.802,0.879,3.683,99.78934,-1.237,-0.007,76.6,0,109.5,13.62,-0.49,18.5
"2009-02-11 00:54:30",619659,8.84,52.11,3.856,0.671,3.701,99.7749,-1.273,-0.037,77.98,0,109.5,13.62,-0.53,14.1
"2009-02-11 00:55:00",619660,8.71,53.35,3.265,0.591,3.834,99.75282,-1.33,-0.093,79.18,0,109.5,13.62,-0.58,15.3
"2009-02-11 00:55:30",619661,8.37,55.9,2.85,0.797,4.335,99.72734,-1.395,-0.138,79.07,0,109.5,13.62,-0.65,17.9
"2009-02-11 00:56:00",619662,8.4,57.4,3.195,0.507,4.242,99.7197,-1.414,-0.166,78.62,0,109.5,13.62,-0.67,19.4
"2009-02-11 00:56:30",619663,8.3,54.44,3.811,0.678,4.154,99.72025,-1.413,-0.186,78.62,0,109.5,13.62,-0.67,16.4
"2009-02-11 00:57:00",619664,8.51,52.4,3.171,0.638,3.89,99.71997,-1.413,-0.182,79.69,0,109.5,13.62,-0.67,14.4
"2009-02-11 00:57:30",619665,8.79,52.84,4.391,0.373,4.106,99.6945,-1.478,-0.205,80.5,0,109.5,13.62,-0.73,14.8
"2009-02-11 00:58:00",619666,8.45,52.25,2.486,0.741,4.181,99.68798,-1.495,-0.256,80.6,0,109.5,13.62,-0.75,14.2
"2009-02-11 00:58:30",619667,8.51,50.83,3.294,0.74,4.29,99.68741,-1.496,-0.274,81,0,109.5,13.62,-0.75,12.8
"2009-02-11 00:59:00",619668,8.5,48.56,3.354,0.721,4.041,99.68345,-1.506,-0.286,81.5,0,109.5,13.62,-0.76,10.6
"2009-02-11 00:59:30",619669,8.87,49.48,3.132,0.759,4.117,99.6591,-1.569,-0.293,82,0,109.5,13.62,-0.82,11.5
"2009-02-11 01:00:00",619670,9.16,48.75,3.151,0.747,4.121,99.65401,-1.582,-0.316,82.3,0,109.5,13.62,-0.84,10.8
"2009-02-11 01:00:30",619671,9.09,51.44,2.719,0.734,4.352,99.65456,-1.58,-0.341,82.6,0,109.5,13.61,-0.83,13.4
"2009-02-11 01:01:00",619672,9.2,51.36,3.453,0.615,4.253,99.65541,-1.578,-0.353,82.6,0,109.5,13.61,-0.83,13.4
"2009-02-11 01:01:30",619673,9.35,49.27,3.807,0.705,4.402,99.65401,-1.582,-0.349,82.8,0,109.5,13.61,-0.84,11.3
"2009-02-11 01:02:00",619674,9.48,55.8,3.954,0.805,4.549,99.65767,-1.572,-0.382,82.5,0,109.5,13.61,-0.83,17.8
"2009-02-11 01:02:30",619675,9.21,55.12,1.906,0.832,4.661,99.65767,-1.572,-0.384,82.1,0,109.5,13.61,-0.83,17.1
"2009-02-11 01:03:00",619676,9.39,51.48,3.742,0.481,4.793,99.65907,-1.569,-0.377,82,0,109.5,13.61,-0.82,13.5
"2009-02-11 01:03:30",619677,9.23,49.35,3.758,0.662,4.659,99.65936,-1.568,-0.363,82.3,0,109.5,13.61,-0.82,11.3
"2009-02-11 01:04:00",619678,9.63,49.92,3.13,0.726,4.552,99.65936,-1.568,-0.372,82.7,0,109.5,13.61,-0.82,11.9
"2009-02-11 01:04:30",619679,9.52,51.38,2.715,0.799,4.501,99.65992,-1.566,-0.367,83.1,0,109.5,13.61,-0.82,13.4
"2009-02-11 01:05:00",619680,9.63,53.11,2.172,0.732,4.278,99.65794,-1.571,-0.374,83.2,0,109.5,13.61,-0.83,15.1
"2009-02-11 01:05:30",619681,9.5,51.73,3.416,0.686,4.587,99.64407,-1.607,-0.387,83.3,0,109.5,13.62,-0.86,13.7
"2009-02-11 01:06:00",619682,9.36,53.04,3.902,0.826,4.439,99.63189,-1.638,-0.412,83.4,0,109.5,13.62,-0.89,15.0
"2009-02-11 01:06:30",619683,9.56,55.51,3.751,0.651,4.763,99.6265,-1.652,-0.406,83.5,0,109.5,13.62,-0.91,17.5
"2009-02-11 01:07:00",619684,9.46,54.94,3.855,0.619,4.824,99.62595,-1.653,-0.435,83.4,0,109.5,13.62,-0.91,16.9
"2009-02-11 01:07:30",619685,9.38,55.1,4.317,0.662,4.756,99.62595,-1.653,-0.429,83.4,0,109.5,13.62,-0.91,17.1
"2009-02-11 01:08:00",619686,9.4,56.68,3.715,0.753,4.767,99.62622,-1.652,-0.447,83.3,0,109.5,13.62,-0.91,18.7
"2009-02-11 01:08:30",619687,9.33,58.6,2.967,0.741,4.796,99.62622,-1.652,-0.469,83.2,0,109.5,13.62,-0.91,20.6
"2009-02-11 01:09:00",619688,9.72,59.15,3.679,0.612,4.709,99.62254,-1.662,-0.462,82.9,0,109.5,13.62,-0.92,21.2
"2009-02-11 01:09:30",619689,9.62,60.75,3.478,0.718,4.66,99.6115,-1.69,-0.459,82.7,0,109.5,13.62,-0.94,22.8
"2009-02-11 01:10:00",619690,9.49,61.66,3.383,0.737,4.656,99.60754,-1.7,-0.498,82.5,0,109.5,13.62,-0.95,23.7
"2009-02-11 01:10:30",619691,9.63,62.83,3.449,0.753,4.666,99.60442,-1.708,-0.501,82.3,0,109.5,13.62,-0.96,24.8
"2009-02-11 01:11:00",619692,9.62,61.79,2.757,0.748,4.519,99.59536,-1.731,-0.502,82.1,0,109.5,13.62,-0.99,23.8
"2009-02-11 01:11:30",619693,9.51,60.24,2.995,0.804,4.649,99.59225,-1.739,-0.491,82.2,0,109.5,13.62,-0.99,22.2
"2009-02-11 01:12:00",619694,9.25,59.75,3.27,0.812,4.561,99.59225,-1.739,-0.509,82.2,0,109.5,13.62,-0.99,21.8
"2009-02-11 01:12:30",619695,9.13,59.08,2.959,0.778,4.761,99.59225,-1.739,-0.509,82.4,0,109.5,13.62,-0.99,21.1
"2009-02-11 01:13:00",619696,9.32,59.11,2.986,0.731,4.408,99.59112,-1.742,-0.517,82.7,0,109.5,13.62,-1.00,21.1
"2009-02-11 01:13:30",619697,9.52,56.84,3.793,0.626,4.683,99.58177,-1.766,-0.513,83,0,109.5,13.62,-1.02,18.8
"2009-02-11 01:14:00",619698,9.52,56.42,4.084,0.659,4.699,99.5713,-1.792,-0.544,83.1,0,109.5,13.62,-1.05,18.4
"2009-02-11 01:14:30",619699,9.26,56.46,3.377,0.752,4.591,99.55911,-1.823,-0.548,83.2,0,109.5,13.62,-1.08,18.5
"2009-02-11 01:15:00",619700,9.58,57.91,3.822,0.712,4.503,99.55827,-1.826,-0.577,83.4,0,109.5,13.62,-1.08,19.9
"2009-02-11 01:15:30",619701,9.8,58.63,3.64,0.728,4.473,99.55827,-1.826,-0.594,83.5,0,109.5,13.62,-1.08,20.6
"2009-02-11 01:16:00",619702,10.01,60.12,2.914,0.799,4.519,99.55827,-1.826,-0.608,83.5,0,109.5,13.62,-1.08,22.1
"2009-02-11 01:16:30",619703,10.01,59.05,3.428,0.767,4.811,99.55176,-1.842,-0.629,83.6,0,109.5,13.62,-1.10,21.0
"2009-02-11 01:17:00",619704,9.82,59.57,2.729,0.695,4.66,99.54383,-1.862,-0.643,83.5,0,109.5,13.62,-1.12,21.6
"2009-02-11 01:17:30",619705,9.66,60.29,3.893,0.626,4.858,99.53845,-1.876,-0.613,83.6,0,109.4,13.62,-1.13,22.3
"2009-02-11 01:18:00",619706,9.54,59.88,3.379,0.723,4.715,99.53647,-1.881,-0.64,83.8,0,109.5,13.62,-1.14,21.9
"2009-02-11 01:18:30",619707,9.34,60.8,3.339,0.77,4.769,99.52825,-1.902,-0.645,84.2,0,109.5,13.62,-1.16,22.8
"2009-02-11 01:19:00",619708,8.99,60.86,3.293,0.753,4.502,99.52429,-1.912,-0.659,84,0,109.4,13.62,-1.17,22.9
"2009-02-11 01:19:30",619709,9.67,57.22,5.328,0.947,4.46,99.52429,-1.912,-0.645,84,0,109.5,13.62,-1.17,19.2
"2009-02-11 01:20:00",619710,10.46,53.45,2.825,0.744,4.305,99.52429,-1.912,-0.659,85,0,109.5,13.62,-1.17,15.5
"2009-02-11 01:20:30",619711,10.38,56.12,4.049,0.672,4.845,99.51806,-1.928,-0.662,86,0,109.5,13.62,-1.18,18.1
"2009-02-11 01:21:00",619712,10.1,57.07,3.952,0.623,4.711,99.4957,-1.985,-0.667,86.4,0,109.4,13.62,-1.24,19.1
"2009-02-11 01:21:30",619713,10,58.22,3.416,0.762,4.808,99.49032,-1.999,-0.694,86.7,0,109.5,13.62,-1.25,20.2
"2009-02-11 01:22:00",619714,10.05,56.42,3.794,0.717,4.644,99.49032,-1.999,-0.722,86.9,0,109.5,13.62,-1.25,18.4
"2009-02-11 01:22:30",619715,10.01,58.16,2.427,0.76,4.76,99.49032,-1.999,-0.74,87.2,0,109.4,13.62,-1.25,20.2
"2009-02-11 01:23:00",619716,9.84,58.41,2.58,0.742,4.785,99.48748,-2.006,-0.771,87.4,0,109.4,13.63,-1.26,20.4
"2009-02-11 01:23:30",619717,9.58,57.46,2.845,0.828,4.59,99.48209,-2.02,-0.74,87.6,0,109.4,13.63,-1.27,19.5
"2009-02-11 01:24:00",619718,9.53,57.81,3.045,0.735,4.646,99.47729,-2.032,-0.774,87.7,0,109.4,13.63,-1.29,19.8
"2009-02-11 01:24:30",619719,9.56,58.2,2.461,0.728,4.698,99.47304,-2.043,-0.769,87.8,0,109.4,13.63,-1.30,20.2
"2009-02-11 01:25:00",619720,9.84,57.06,3.356,0.599,4.642,99.47021,-2.05,-0.793,87.9,0,109.5,13.63,-1.31,19.1
"2009-02-11 01:25:30",619721,9.66,56.58,3.171,0.72,4.657,99.45888,-2.079,-0.776,88.1,0,109.4,13.63,-1.33,18.6
"2009-02-11 01:26:00",619722,9.81,56.18,3.329,0.711,4.571,99.45662,-2.085,-0.803,88.3,0,109.4,13.63,-1.34,18.2
"2009-02-11 01:26:30",619723,10,56.11,2.789,0.735,4.527,99.45633,-2.085,-0.816,88.5,0,109.4,13.63,-1.34,18.1
"2009-02-11 01:27:00",619724,10.14,56.89,2.756,0.706,4.361,99.45633,-2.085,-0.815,88.8,0,109.4,13.63,-1.34,18.9
"2009-02-11 01:27:30",619725,10.14,56.26,3.725,0.629,4.71,99.45378,-2.092,-0.804,89,0,109.4,13.63,-1.35,18.3
"2009-02-11 01:28:00",619726,10.14,57.84,3.765,0.652,4.7,99.44614,-2.111,-0.84,89.1,0,109.4,13.63,-1.37,19.8
"2009-02-11 01:28:30",619727,9.83,58.09,3.089,0.725,4.689,99.43339,-2.144,-0.847,89.3,0,109.4,13.63,-1.40,20.1
"2009-02-11 01:29:00",619728,9.86,58.59,3.067,0.628,4.458,99.42263,-2.171,-0.873,89.4,0,109.4,13.63,-1.43,20.6
"2009-02-11 01:29:30",619729,9.5,59.51,3.167,0.732,4.497,99.42376,-2.168,-0.871,89.6,0,109.4,13.63,-1.42,21.5
"2009-02-11 01:30:00",619730,9.58,59.55,3.356,0.752,4.496,99.41809,-2.183,-0.901,89.7,0,109.4,13.63,-1.44,21.5
"2009-02-11 01:30:30",619731,9.71,59.04,3.328,0.675,4.278,99.40166,-2.225,-0.938,89.8,0,109.4,13.63,-1.48,21.0
"2009-02-11 01:31:00",619732,10.06,58.59,3.757,0.775,4.181,99.39259,-2.248,-0.955,89.9,0,109.5,13.63,-1.50,20.6
"2009-02-11 01:31:30",619733,9.7,58.53,2.528,0.765,4.255,99.38976,-2.255,-0.961,90.1,0,109.4,13.63,-1.51,20.5
"2009-02-11 01:32:00",619734,9.89,55.47,2.291,0.701,4.105,99.36682,-2.313,-1,90.2,0,109.4,13.63,-1.57,17.5
"2009-02-11 01:32:30",619735,10.09,56.19,3.416,0.767,4.487,99.36368,-2.321,-1.01,90.4,0,109.4,13.63,-1.58,18.2
"2009-02-11 01:33:00",619736,10.16,55.13,3.506,0.742,4.245,99.35945,-2.332,-1.039,90.6,0,109.4,13.63,-1.59,17.1
"2009-02-11 01:33:30",619737,10.14,54.17,2.808,0.9,4.316,99.34924,-2.358,-1.061,90.9,0,109.4,13.63,-1.61,16.2
"2009-02-11 01:34:00",619738,10.41,52.42,4.044,0.65,4.605,99.3314,-2.404,-1.088,91.1,0,109.4,13.63,-1.66,14.4
"2009-02-11 01:34:30",619739,10.61,50.99,3.755,0.666,4.613,99.33363,-2.398,-1.108,91.3,0,109.4,13.62,-1.65,13.0
"2009-02-11 01:35:00",619740,10.49,52.54,2.845,0.761,4.416,99.32713,-2.415,-1.125,91.5,0,109.4,13.63,-1.67,14.5
"2009-02-11 01:35:30",619741,10.25,53.9,2.94,0.732,4.516,99.32202,-2.428,-1.147,91.8,0,109.4,13.63,-1.68,15.9
"2009-02-11 01:36:00",619742,10.25,53.54,2.636,0.806,4.374,99.3101,-2.458,-1.176,92,0,109.4,13.63,-1.71,15.5
"2009-02-11 01:36:30",619743,10.27,53.62,3.701,0.729,4.707,99.30387,-2.474,-1.17,92.3,0,109.4,13.63,-1.73,15.6
"2009-02-11 01:37:00",619744,10.17,53.89,2.734,0.705,4.422,99.30331,-2.475,-1.197,92.5,0,109.4,13.63,-1.73,15.9
"2009-02-11 01:37:30",619745,10.27,53.99,2.724,0.802,4.393,99.30584,-2.469,-1.184,92.7,0,109.4,13.63,-1.73,16.0
"2009-02-11 01:38:00",619746,10.28,53.9,3.349,0.653,4.327,99.30359,-2.475,-1.219,92.9,0,109.4,13.63,-1.73,15.9
"2009-02-11 01:38:30",619747,10.01,55.77,2.542,0.828,4.647,99.29932,-2.485,-1.23,93.1,0,109.4,13.63,-1.74,17.8
"2009-02-11 01:39:00",619748,10.08,55.64,3.285,0.64,4.642,99.29846,-2.488,-1.242,93.2,0,109.5,13.63,-1.74,17.6
"2009-02-11 01:39:30",619749,10.35,57.48,4.091,0.63,4.609,99.2928,-2.502,-1.247,93.3,0,109.4,13.63,-1.76,19.5
"2009-02-11 01:40:00",619750,10.11,59.23,3.418,0.738,4.511,99.2809,-2.532,-1.263,93.4,0,109.4,13.63,-1.79,21.2
"2009-02-11 01:40:30",619751,10.13,59.05,2.345,0.706,4.606,99.27663,-2.543,-1.282,93.5,0,109.4,13.64,-1.80,21.0
"2009-02-11 01:41:00",619752,10.1,59.21,3.347,0.617,4.464,99.27776,-2.54,-1.303,93.5,0,109.5,13.64,-1.80,21.2
"2009-02-11 01:41:30",619753,9.85,60.66,3.202,0.728,4.41,99.27663,-2.543,-1.294,93.6,0,109.4,13.64,-1.80,22.7
"2009-02-11 01:42:00",619754,9.89,63.82,3.643,0.738,4.293,99.27351,-2.551,-1.331,93.6,0,109.4,13.64,-1.81,25.8
"2009-02-11 01:42:30",619755,10,64.96,3.419,0.777,4.294,99.26444,-2.574,-1.341,93.6,0,109.4,13.64,-1.83,27.0
"2009-02-11 01:43:00",619756,9.97,65.1,2.775,0.702,4.144,99.24886,-2.614,-1.35,93.6,0,109.4,13.64,-1.87,27.1
"2009-02-11 01:43:30",619757,10,65.03,2.846,0.809,4.044,99.24405,-2.626,-1.348,93.6,0,109.4,13.64,-1.88,27.0
"2009-02-11 01:44:00",619758,10.1,63.71,2.926,0.735,3.966,99.2449,-2.624,-1.364,93.6,0,109.4,13.64,-1.88,25.7
"2009-02-11 01:44:30",619759,10.25,62.02,2.72,0.707,4.009,99.24461,-2.625,-1.381,93.7,0,109.4,13.64,-1.88,24.0
"2009-02-11 01:45:00",619760,10.26,59.66,2.898,0.714,3.996,99.24235,-2.631,-1.378,93.7,0,109.4,13.64,-1.89,21.7
"2009-02-11 01:45:30",619761,10.28,59.05,3.607,0.738,4.161,99.23782,-2.642,-1.37,93.7,0,109.4,13.64,-1.90,21.0
"2009-02-11 01:46:00",619762,10.18,58.14,3.085,0.764,4.091,99.23584,-2.647,-1.395,93.8,0,109.4,13.64,-1.90,20.1
"2009-02-11 01:46:30",619763,10.29,58.44,2.402,0.887,4.164,99.23556,-2.648,-1.404,93.9,0,109.4,13.64,-1.91,20.4
"2009-02-11 01:47:00",619764,10.25,58.77,2.888,0.734,4.178,99.23554,-2.648,-1.398,94,0,109.4,13.64,-1.91,20.8
"2009-02-11 01:47:30",619765,10.02,57.52,3.164,0.751,4.136,99.22421,-2.677,-1.415,94.2,0,109.4,13.64,-1.93,19.5
"2009-02-11 01:48:00",619766,10.22,55.97,3.658,0.81,4.216,99.21769,-2.693,-1.416,94.3,0,109.4,13.64,-1.95,18.0